M I D A S
Marine Information and Data Acquisition System
Tripno 858 of the Zeeleeuw from 2005-03-08 07:18:40 to 2005-03-08 16:14:43
Back to CruiseResearch ActivitiesStationsMapUnderway DataData graphs

EquipmentUnitsComments
TimeDGPSUTC
LatitudeDGPSDM.mWGS84
LongitudeDGPSDM.mWGS84
SpeedMeteo Stationm/sRelative wind speed
DirectionMeteo StationdegRelative wind direction
TemperatureMeteo Stationdeg CelciusAir temperature
PressureMeteo StationPaAtmospheric pressure
HumidityMeteo Station%Relative humidity
Missing or incorrect values are displayed as -999
Metereological data collected by the RV Zeeleeuw from 2005-03-08 07:19:27 to 2005-03-08 16:24:33
Time Latitude Longitude Speed Direction Temperature Pressure Humidity
2005-03-08 07:20 51°13.622 2°56.004 6.8 196 4.6 102550 90
2005-03-08 07:21 51°13.665 2°55.898 6.4 190 4.9 102550 92
2005-03-08 07:22 51°13.698 2°55.797 9.8 209 4.9 102550 90
2005-03-08 07:23 51°13.707 2°55.747 8.5 266 4.7 102550 90
2005-03-08 07:24 51°13.698 2°55.734 7.9 273 4.7 102550 91
2005-03-08 07:25 51°13.75 2°55.711 10.3 7 4.7 102530 91
2005-03-08 07:26 51°13.852 2°55.619 10 353 4.6 102520 91
2005-03-08 07:27 51°13.998 2°55.513 12.9 359 4.6 102520 91
2005-03-08 07:28 51°14.14 2°55.407 13.8 357 4.5 102510 91
2005-03-08 07:29 51°14.283 2°55.233 13.9 5 4.4 102510 91
2005-03-08 07:30 51°14.402 2°54.998 14.3 6 4.4 102540 91
2005-03-08 07:31 51°14.55 2°54.764 15.3 6 4.4 102510 92
2005-03-08 07:32 51°14.697 2°54.514 14.9 3 4.3 102480 92
2005-03-08 07:33 51°14.846 2°54.26 16.4 4 4.3 102490 93
2005-03-08 07:34 51°14.98 2°53.986 15.4 8 4.3 102480 93
2005-03-08 07:35 51°15.115 2°53.711 15.4 8 4.4 102480 93
2005-03-08 07:36 51°15.218 2°53.401 15.6 17 4.4 102480 93
2005-03-08 07:37 51°15.284 2°53.056 16 17 4.4 102470 93
2005-03-08 07:38 51°15.319 2°52.702 15.4 21 4.4 102470 93
2005-03-08 07:39 51°15.345 2°52.344 15.5 22 4.4 102480 93
2005-03-08 07:40 51°15.371 2°51.984 15.8 23 4.3 102470 94
2005-03-08 07:41 51°15.375 2°51.626 14.4 30 4.4 102460 93
2005-03-08 07:42 51°15.347 2°51.269 15.5 34 4.4 102470 93
2005-03-08 07:43 51°15.31 2°50.922 14.9 40 4.4 102470 93
2005-03-08 07:44 51°15.26 2°50.574 15.1 38 4.4 102470 93
2005-03-08 07:45 51°15.207 2°50.214 13.9 33 4.4 102470 93
2005-03-08 07:46 51°15.158 2°49.863 14.6 41 4.4 102480 93
2005-03-08 07:47 51°15.112 2°49.516 14.5 41 4.4 102480 93
2005-03-08 07:48 51°15.063 2°49.155 14.1 36 4.4 102540 93
2005-03-08 07:49 51°15.016 2°48.804 14 35 4.4 102480 93
2005-03-08 07:50 51°14.968 2°48.457 14.3 35 4.4 102490 93
2005-03-08 07:51 51°14.922 2°48.102 13.6 39 4.4 102480 93
2005-03-08 07:52 51°14.876 2°47.753 14.5 40 4.4 102480 93
2005-03-08 07:53 51°14.828 2°47.4 13.7 35 4.4 102480 93
2005-03-08 07:54 51°14.781 2°47.048 14.5 37 4.4 102480 92
2005-03-08 07:55 51°14.733 2°46.702 13.5 31 4.5 102480 93
2005-03-08 07:56 51°14.689 2°46.361 13.7 35 4.5 102520 93
2005-03-08 07:57 51°14.64 2°46.004 15.2 36 4.5 102530 93
2005-03-08 07:58 51°14.595 2°45.665 15.8 40 4.5 102480 93
2005-03-08 07:59 51°14.549 2°45.318 14.1 35 4.5 102470 93
2005-03-08 08:00 51°14.512 2°44.96 15.7 32 4.5 102480 92
2005-03-08 08:01 51°14.486 2°44.6 16 35 4.5 102490 92
2005-03-08 08:02 51°14.462 2°44.235 15.6 36 4.5 102490 92
2005-03-08 08:03 51°14.437 2°43.88 15 32 4.5 102480 92
2005-03-08 08:04 51°14.411 2°43.516 14.1 34 4.5 102490 92
2005-03-08 08:05 51°14.384 2°43.159 15.2 33 4.5 102490 92
2005-03-08 08:06 51°14.359 2°42.807 15.1 34 4.5 102490 92
2005-03-08 08:07 51°14.34 2°42.455 15.5 34 4.5 102490 92
2005-03-08 08:08 51°14.327 2°42.096 13.5 32 4.5 102480 92
2005-03-08 08:09 51°14.313 2°41.747 15 31 4.5 102490 93
2005-03-08 08:10 51°14.298 2°41.392 13.7 30 4.5 102490 93
2005-03-08 08:11 51°14.286 2°41.051 15.5 34 4.5 102490 93
2005-03-08 08:12 51°14.274 2°40.701 14.7 30 4.5 102470 93
2005-03-08 08:13 51°14.26 2°40.35 14.6 35 4.5 102470 93
2005-03-08 08:14 51°14.247 2°40.01 14.2 30 4.5 102470 93
2005-03-08 08:15 51°14.221 2°39.665 13.6 38 4.5 102480 93
2005-03-08 08:16 51°14.186 2°39.317 15.3 39 4.5 102470 93
2005-03-08 08:17 51°14.149 2°38.972 15.3 38 4.5 102470 93
2005-03-08 08:18 51°14.116 2°38.626 14.6 38 4.5 102470 93
2005-03-08 08:19 51°14.077 2°38.266 16.2 40 4.5 102540 92
2005-03-08 08:20 51°14.004 2°37.924 11.2 47 4.6 102540 92
2005-03-08 08:21 51°13.893 2°37.613 15 56 4.5 102490 92
2005-03-08 08:22 51°13.78 2°37.29 13.7 49 4.5 102480 92
2005-03-08 08:23 51°13.669 2°36.973 14.4 54 4.6 102490 92
2005-03-08 08:24 51°13.564 2°36.665 15 49 4.6 102500 92
2005-03-08 08:25 51°13.448 2°36.353 14.5 52 4.6 102500 92
2005-03-08 08:26 51°13.331 2°36.041 12.7 50 4.6 102500 92
2005-03-08 08:27 51°13.216 2°35.746 13.1 59 4.6 102490 92
2005-03-08 08:28 51°13.093 2°35.449 13.1 54 4.6 102500 92
2005-03-08 08:29 51°12.97 2°35.146 12.3 57 4.6 102510 92
2005-03-08 08:30 51°12.849 2°34.857 14 59 4.5 102500 92
2005-03-08 08:31 51°12.715 2°34.573 13.9 62 4.5 102500 92
2005-03-08 08:32 51°12.564 2°34.296 12.1 61 4.5 102510 92
2005-03-08 08:33 51°12.42 2°34.04 12.5 65 4.5 102510 93
2005-03-08 08:34 51°12.264 2°33.793 10.6 68 4.5 102510 93
2005-03-08 08:35 51°12.088 2°33.563 9 74 4.5 102520 93
2005-03-08 08:36 51°11.923 2°33.38 10.4 81 4.5 102520 93
2005-03-08 08:37 51°11.84 2°33.289 8.6 128 4.5 102570 93
2005-03-08 08:38 51°11.79 2°33.289 9 121 4.5 102580 93
2005-03-08 08:39 51°11.764 2°33.29 8.1 110 4.5 102590 93
2005-03-08 08:40 51°11.743 2°33.294 8.3 106 4.5 102600 93
2005-03-08 08:41 51°11.72 2°33.292 8.2 99 4.5 102610 93
2005-03-08 08:42 51°11.683 2°33.259 9.8 87 4.5 102570 93
2005-03-08 08:43 51°11.642 2°33.208 7.6 73 4.5 102570 93
2005-03-08 08:44 51°11.61 2°33.149 8.2 72 4.4 102560 93
2005-03-08 08:45 51°11.579 2°33.092 7.8 80 4.4 102560 93
2005-03-08 08:46 51°11.55 2°33.047 6.2 79 4.4 102570 93
2005-03-08 08:47 51°11.516 2°33.009 7.4 104 4.4 102580 93
2005-03-08 08:48 51°11.475 2°32.981 7.4 94 4.4 102580 94
2005-03-08 08:49 51°11.442 2°32.944 7.4 78 4.4 102580 93
2005-03-08 08:50 51°11.412 2°32.901 8.8 70 4.3 102580 94
2005-03-08 08:51 51°11.394 2°32.85 10.1 57 4.3 102570 94
2005-03-08 08:52 51°11.376 2°32.785 9.7 50 4.3 102560 94
2005-03-08 08:53 51°11.353 2°32.721 9.1 75 4.3 102560 94
2005-03-08 08:54 51°11.32 2°32.666 7.3 74 4.3 102560 94
2005-03-08 08:55 51°11.286 2°32.612 7.4 72 4.3 102570 94
2005-03-08 08:56 51°11.254 2°32.562 7.7 73 4.3 102570 95
2005-03-08 08:57 51°11.226 2°32.512 8.3 66 4.3 102570 95
2005-03-08 08:58 51°11.199 2°32.463 8.5 64 4.3 102570 95
2005-03-08 08:59 51°11.175 2°32.416 8 66 4.3 102570 95
2005-03-08 09:00 51°11.149 2°32.365 8 61 4.3 102570 95
2005-03-08 09:01 51°11.122 2°32.318 8 66 4.3 102580 95
2005-03-08 09:02 51°11.096 2°32.27 8.7 72 4.3 102570 95
2005-03-08 09:03 51°11.073 2°32.22 8 66 4.4 102570 95
2005-03-08 09:04 51°11.049 2°32.173 7.3 61 4.3 102570 95
2005-03-08 09:05 51°11.026 2°32.125 8.9 66 4.4 102570 94
2005-03-08 09:06 51°11.004 2°32.079 9 66 4.4 102570 94
2005-03-08 09:07 51°10.979 2°32.031 8.5 74 4.4 102580 94
2005-03-08 09:08 51°10.954 2°31.983 7.5 76 4.4 102580 93
2005-03-08 09:09 51°10.93 2°31.935 8.7 67 4.4 102590 93
2005-03-08 09:10 51°10.904 2°31.885 8.2 77 4.5 102570 93
2005-03-08 09:11 51°10.879 2°31.839 7.3 75 4.5 102570 92
2005-03-08 09:12 51°10.852 2°31.79 7.5 76 4.5 102570 92
2005-03-08 09:13 51°10.825 2°31.742 8.9 76 4.5 102570 92
2005-03-08 09:14 51°10.798 2°31.696 8.5 78 4.5 102570 92
2005-03-08 09:15 51°10.767 2°31.648 8.8 72 4.5 102570 92
2005-03-08 09:16 51°10.738 2°31.603 8.7 77 4.5 102560 91
2005-03-08 09:17 51°10.713 2°31.561 8.7 76 4.5 102570 91
2005-03-08 09:18 51°10.686 2°31.517 9 77 4.5 102570 91
2005-03-08 09:19 51°10.661 2°31.461 10 70 4.5 102560 91
2005-03-08 09:20 51°10.636 2°31.392 8.4 72 4.5 102570 90
2005-03-08 09:21 51°10.605 2°31.32 10.1 72 4.5 102560 90
2005-03-08 09:22 51°10.58 2°31.251 8.5 73 4.5 102550 90
2005-03-08 09:23 51°10.561 2°31.188 9 69 4.5 102570 90
2005-03-08 09:24 51°10.553 2°31.164 9.1 69 4.6 102580 90
2005-03-08 09:25 51°10.547 2°31.164 10.7 68 4.6 102600 90
2005-03-08 09:26 51°10.544 2°31.166 10.2 53 4.6 102580 90
2005-03-08 09:27 51°10.566 2°31.125 10.9 356 4.6 102570 90
2005-03-08 09:28 51°10.635 2°31.144 9.4 44 4.6 102560 90
2005-03-08 09:29 51°10.705 2°31.215 10.8 306 4.7 102560 90
2005-03-08 09:30 51°10.754 2°31.299 10.1 286 4.7 102570 90
2005-03-08 09:31 51°10.786 2°31.38 10.7 272 4.7 102570 90
2005-03-08 09:32 51°10.812 2°31.461 12 266 4.7 102570 90
2005-03-08 09:33 51°10.83 2°31.537 9.6 264 4.7 102580 89
2005-03-08 09:34 51°10.849 2°31.605 9.8 274 4.7 102580 89
2005-03-08 09:35 51°10.867 2°31.668 10.4 277 4.7 102580 89
2005-03-08 09:36 51°10.885 2°31.729 10.8 281 4.7 102580 89
2005-03-08 09:37 51°10.899 2°31.787 8.3 281 4.7 102580 89
2005-03-08 09:38 51°10.919 2°31.85 8.4 283 4.7 102580 89
2005-03-08 09:39 51°10.939 2°31.912 7.8 283 4.7 102580 90
2005-03-08 09:40 51°10.961 2°31.972 8.1 289 4.7 102570 90
2005-03-08 09:41 51°10.985 2°32.037 8.5 290 4.7 102580 90
2005-03-08 09:42 51°11.01 2°32.098 8.1 297 4.6 102580 90
2005-03-08 09:43 51°11.032 2°32.159 9.2 301 4.6 102570 90
2005-03-08 09:44 51°11.052 2°32.222 10 295 4.6 102580 90
2005-03-08 09:45 51°11.072 2°32.283 9.6 295 4.6 102580 90
2005-03-08 09:46 51°11.093 2°32.344 10.4 300 4.7 102580 90
2005-03-08 09:47 51°11.112 2°32.405 10 299 4.7 102570 90
2005-03-08 09:48 51°11.135 2°32.464 10.9 308 4.6 102580 90
2005-03-08 09:49 51°11.157 2°32.522 8.7 305 4.7 102570 90
2005-03-08 09:50 51°11.179 2°32.578 9 307 4.7 102570 90
2005-03-08 09:51 51°11.2 2°32.639 9.7 303 4.7 102570 90
2005-03-08 09:52 51°11.221 2°32.703 9 304 4.7 102560 90
2005-03-08 09:53 51°11.244 2°32.766 9.4 312 4.7 102570 90
2005-03-08 09:54 51°11.267 2°32.822 9.4 319 4.6 102570 90
2005-03-08 09:55 51°11.29 2°32.873 9.6 330 4.6 102560 90
2005-03-08 09:56 51°11.319 2°32.916 9.7 343 4.6 102570 90
2005-03-08 09:57 51°11.35 2°32.95 10.7 352 4.7 102580 91
2005-03-08 09:58 51°11.387 2°32.975 9.6 341 4.7 102580 91
2005-03-08 09:59 51°11.43 2°33.006 10 343 4.7 102570 91
2005-03-08 10:00 51°11.467 2°33.047 9.1 341 4.7 102570 91
2005-03-08 10:01 51°11.502 2°33.087 9.3 339 4.7 102570 91
2005-03-08 10:02 51°11.54 2°33.13 9.3 341 4.7 102570 91
2005-03-08 10:03 51°11.578 2°33.173 9.2 334 4.6 102570 91
2005-03-08 10:04 51°11.618 2°33.214 10.4 334 4.7 102570 91
2005-03-08 10:05 51°11.655 2°33.255 9 338 4.6 102560 91
2005-03-08 10:06 51°11.694 2°33.294 8 334 4.7 102560 91
2005-03-08 10:07 51°11.732 2°33.338 10.1 331 4.7 102570 91
2005-03-08 10:08 51°11.767 2°33.397 9.6 295 4.7 102550 91
2005-03-08 10:09 51°11.798 2°33.481 9.1 278 4.7 102560 91
2005-03-08 10:10 51°11.824 2°33.57 9 263 4.7 102560 91
2005-03-08 10:11 51°11.843 2°33.671 6.1 258 4.7 102560 91
2005-03-08 10:12 51°11.861 2°33.775 5.5 257 4.7 102570 91
2005-03-08 10:13 51°11.879 2°33.863 9.7 276 4.7 102560 91
2005-03-08 10:14 51°11.904 2°33.939 10.1 301 4.7 102550 91
2005-03-08 10:15 51°11.922 2°34.006 10.5 298 4.7 102550 91
2005-03-08 10:16 51°11.945 2°34.074 10.8 317 4.8 102540 91
2005-03-08 10:17 51°11.962 2°34.136 9.8 43 4.8 102540 90
2005-03-08 10:18 51°11.97 2°34.202 8.9 308 4.8 102560 90
2005-03-08 10:19 51°11.998 2°34.265 10.5 336 4.8 102550 90
2005-03-08 10:20 51°12.025 2°34.305 9.8 7 4.8 102560 90
2005-03-08 10:21 51°12.042 2°34.327 10.1 36 4.8 102540 90
2005-03-08 10:22 51°12.048 2°34.332 11.2 66 4.7 102530 90
2005-03-08 10:23 51°12.036 2°34.343 8.6 103 4.6 102530 90
2005-03-08 10:24 51°12.018 2°34.359 10.6 93 4.6 102540 90
2005-03-08 10:25 51°12.007 2°34.386 10.1 95 4.6 102560 90
2005-03-08 10:26 51°11.994 2°34.397 8.4 79 4.6 102560 90
2005-03-08 10:27 51°11.983 2°34.359 10 50 4.6 102560 91
2005-03-08 10:28 51°11.989 2°34.339 9.6 54 4.5 102550 91
2005-03-08 10:29 51°11.992 2°34.353 8.7 57 4.5 102570 92
2005-03-08 10:30 51°11.992 2°34.386 8.9 67 4.4 102570 92
2005-03-08 10:31 51°11.991 2°34.398 10.6 48 4.4 102580 92
2005-03-08 10:32 51°12 2°34.323 10.1 32 4.4 102560 93
2005-03-08 10:33 51°12.021 2°34.213 12.8 30 4.4 102560 93
2005-03-08 10:34 51°12.064 2°34.155 11.7 12 4.5 102570 93
2005-03-08 10:35 51°12.091 2°34.173 8.5 357 4.5 102570 93
2005-03-08 10:36 51°12.104 2°34.219 9.1 349 4.6 102570 92
2005-03-08 10:37 51°12.106 2°34.277 8.3 319 4.6 102580 92
2005-03-08 10:38 51°12.136 2°34.333 11 326 4.6 102550 92
2005-03-08 10:39 51°12.287 2°34.389 13 330 4.6 102510 92
2005-03-08 10:40 51°12.499 2°34.511 13.9 324 4.6 102490 92
2005-03-08 10:41 51°12.691 2°34.75 12.8 228 4.6 102500 92
2005-03-08 10:42 51°12.89 2°34.937 13.3 326 4.6 102500 92
2005-03-08 10:43 51°13.109 2°34.925 15.6 344 4.7 102500 92
2005-03-08 10:44 51°13.327 2°34.875 15 344 4.7 102500 92
2005-03-08 10:45 51°13.548 2°34.825 16.4 344 4.7 102500 92
2005-03-08 10:46 51°13.767 2°34.779 15.4 346 4.8 102510 92
2005-03-08 10:47 51°13.918 2°34.969 5.5 270 4.8 102560 91
2005-03-08 10:48 51°13.912 2°35.353 6 273 4.8 102530 91
2005-03-08 10:49 51°13.921 2°35.751 6.1 288 4.8 102530 91
2005-03-08 10:50 51°13.986 2°36.131 7.8 304 4.8 102510 91
2005-03-08 10:51 51°14.073 2°36.453 11.1 307 4.8 102570 91
2005-03-08 10:52 51°14.182 2°36.501 10.6 342 4.8 102550 90
2005-03-08 10:53 51°14.286 2°36.49 12 343 4.8 102560 90
2005-03-08 10:54 51°14.395 2°36.48 10.5 339 4.8 102550 90
2005-03-08 10:55 51°14.505 2°36.529 9.1 290 4.8 102550 90
2005-03-08 10:56 51°14.545 2°36.803 5 262 4.8 102540 90
2005-03-08 10:57 51°14.497 2°37.183 3.9 259 4.8 102540 90
2005-03-08 10:58 51°14.431 2°37.544 3.4 280 4.8 102540 90
2005-03-08 10:59 51°14.365 2°37.929 2.4 283 4.8 102540 90
2005-03-08 11:00 51°14.288 2°38.291 2 257 4.8 102540 90
2005-03-08 11:01 51°14.147 2°38.582 2.2 108 4.8 102550 90
2005-03-08 11:02 51°13.958 2°38.812 4.6 103 4.8 102550 90
2005-03-08 11:03 51°13.751 2°38.888 8 82 4.8 102530 90
2005-03-08 11:04 51°13.553 2°38.78 8.6 76 4.7 102520 90
2005-03-08 11:05 51°13.371 2°38.637 11.1 65 4.6 102520 90
2005-03-08 11:06 51°13.196 2°38.454 11.1 65 4.6 102510 91
2005-03-08 11:07 51°13.022 2°38.272 10.7 65 4.6 102510 91
2005-03-08 11:08 51°12.851 2°38.094 12 61 4.5 102510 91
2005-03-08 11:09 51°12.682 2°37.909 11.7 58 4.5 102510 91
2005-03-08 11:10 51°12.509 2°37.73 10.8 73 4.5 102520 92
2005-03-08 11:11 51°12.339 2°37.548 12.8 63 4.5 102520 92
2005-03-08 11:12 51°12.169 2°37.364 10.1 59 4.5 102520 92
2005-03-08 11:13 51°11.994 2°37.179 12.2 63 4.5 102520 92
2005-03-08 11:14 51°11.829 2°36.996 11.2 61 4.5 102560 92
2005-03-08 11:15 51°11.657 2°36.809 13.1 66 4.4 102530 93
2005-03-08 11:16 51°11.485 2°36.621 12 64 4.4 102520 93
2005-03-08 11:17 51°11.305 2°36.454 10.5 72 4.4 102530 93
2005-03-08 11:18 51°11.122 2°36.291 12.2 73 4.4 102540 93
2005-03-08 11:19 51°10.944 2°36.127 10.9 71 4.4 102530 93
2005-03-08 11:20 51°10.76 2°35.96 11 75 4.4 102520 94
2005-03-08 11:21 51°10.561 2°35.854 9.9 70 4.4 102530 94
2005-03-08 11:22 51°10.365 2°35.765 10.6 82 4.4 102540 94
2005-03-08 11:23 51°10.158 2°35.666 10.5 80 4.4 102540 94
2005-03-08 11:24 51°9.96 2°35.574 9.3 81 4.3 102540 94
2005-03-08 11:25 51°9.766 2°35.475 8.6 73 4.3 102550 94
2005-03-08 11:26 51°9.575 2°35.37 8.8 81 4.3 102560 94
2005-03-08 11:27 51°9.382 2°35.243 9.4 71 4.3 102550 94
2005-03-08 11:28 51°9.204 2°35.096 10.6 66 4.3 102610 94
2005-03-08 11:29 51°9.033 2°34.928 12.9 65 4.3 102550 94
2005-03-08 11:30 51°8.879 2°34.74 11 75 4.3 102540 94
2005-03-08 11:31 51°8.722 2°34.558 11.6 66 4.3 102540 94
2005-03-08 11:32 51°8.602 2°34.425 11.3 63 4.3 102580 94
2005-03-08 11:33 51°8.582 2°34.273 12 20 4.4 102610 94
2005-03-08 11:34 51°8.623 2°34.242 8.6 340 4.4 102620 94
2005-03-08 11:35 51°8.636 2°34.278 9.9 293 4.4 102620 94
2005-03-08 11:36 51°8.641 2°34.322 6 259 4.5 102620 94
2005-03-08 11:37 51°8.647 2°34.363 6.1 255 4.5 102630 94
2005-03-08 11:38 51°8.651 2°34.405 8.2 247 4.5 102640 93
2005-03-08 11:39 51°8.655 2°34.443 6.5 254 4.5 102650 93
2005-03-08 11:40 51°8.658 2°34.483 6.6 254 4.5 102640 93
2005-03-08 11:41 51°8.661 2°34.521 6.1 260 4.6 102630 93
2005-03-08 11:42 51°8.665 2°34.56 5.3 255 4.6 102640 93
2005-03-08 11:43 51°8.674 2°34.632 6.6 221 4.6 102630 93
2005-03-08 11:44 51°8.653 2°34.723 7.4 144 4.6 102650 93
2005-03-08 11:45 51°8.611 2°34.734 11.2 83 4.6 102640 93
2005-03-08 11:46 51°8.598 2°34.702 10.1 39 4.5 102630 92
2005-03-08 11:47 51°8.606 2°34.643 10.9 46 4.5 102600 93
2005-03-08 11:48 51°8.603 2°34.558 10.7 50 4.5 102600 93
2005-03-08 11:49 51°8.591 2°34.474 11.8 63 4.4 102590 93
2005-03-08 11:50 51°8.577 2°34.405 11.5 53 4.4 102590 93
2005-03-08 11:51 51°8.568 2°34.338 9.6 70 4.4 102590 93
2005-03-08 11:52 51°8.544 2°34.287 9.8 72 4.4 102620 93
2005-03-08 11:53 51°8.523 2°34.226 11.1 66 4.4 102590 93
2005-03-08 11:54 51°8.502 2°34.161 9.7 67 4.4 102600 93
2005-03-08 11:55 51°8.48 2°34.097 9.5 76 4.4 102600 93
2005-03-08 11:56 51°8.457 2°34.033 11.1 69 4.4 102610 93
2005-03-08 11:57 51°8.434 2°33.966 8.2 70 4.4 102610 94
2005-03-08 11:58 51°8.41 2°33.904 9.6 70 4.4 102600 94
2005-03-08 11:59 51°8.385 2°33.838 10.5 65 4.4 102610 94
2005-03-08 12:00 51°8.361 2°33.772 10.4 67 4.4 102600 94
2005-03-08 12:01 51°8.336 2°33.705 10.7 64 4.4 102600 94
2005-03-08 12:02 51°8.311 2°33.636 11.2 67 4.4 102610 94
2005-03-08 12:03 51°8.288 2°33.568 10.6 63 4.3 102610 94
2005-03-08 12:04 51°8.265 2°33.497 10 66 4.3 102600 94
2005-03-08 12:05 51°8.241 2°33.427 10.7 66 4.3 102610 94
2005-03-08 12:06 51°8.214 2°33.355 10.1 65 4.3 102600 94
2005-03-08 12:07 51°8.19 2°33.285 9.4 62 4.3 102600 94
2005-03-08 12:08 51°8.165 2°33.213 10.8 65 4.3 102600 94
2005-03-08 12:09 51°8.139 2°33.143 11 65 4.3 102610 94
2005-03-08 12:10 51°8.114 2°33.07 10.7 64 4.3 102620 95
2005-03-08 12:11 51°8.092 2°32.994 10.8 62 4.3 102610 95
2005-03-08 12:12 51°8.068 2°32.92 11.2 65 4.3 102610 95
2005-03-08 12:13 51°8.045 2°32.848 11 61 4.3 102610 95
2005-03-08 12:14 51°8.02 2°32.774 9.8 61 4.3 102620 95
2005-03-08 12:15 51°7.994 2°32.704 10.2 59 4.3 102610 95
2005-03-08 12:16 51°7.969 2°32.636 10.9 62 4.3 102610 95
2005-03-08 12:17 51°7.946 2°32.567 11.1 63 4.3 102610 95
2005-03-08 12:18 51°7.921 2°32.498 10.4 59 4.3 102610 95
2005-03-08 12:19 51°7.894 2°32.43 10.2 59 4.3 102610 95
2005-03-08 12:20 51°7.868 2°32.359 9.5 58 4.3 102620 95
2005-03-08 12:21 51°7.848 2°32.288 9.3 60 4.3 102610 95
2005-03-08 12:22 51°7.825 2°32.216 9.6 57 4.3 102610 95
2005-03-08 12:23 51°7.798 2°32.149 9.5 63 4.3 102610 95
2005-03-08 12:24 51°7.782 2°32.076 10.5 43 4.3 102620 95
2005-03-08 12:25 51°7.788 2°32.008 9.8 20 4.3 102620 95
2005-03-08 12:26 51°7.824 2°31.974 8.8 341 4.4 102640 95
2005-03-08 12:27 51°7.853 2°31.992 7.5 42 4.5 102630 95
2005-03-08 12:28 51°7.882 2°32.03 9.4 279 4.5 102630 95
2005-03-08 12:29 51°7.913 2°32.113 7 238 4.5 102630 95
2005-03-08 12:30 51°7.918 2°32.21 5.9 233 4.5 102650 95
2005-03-08 12:31 51°7.926 2°32.306 6.3 246 4.5 102640 95
2005-03-08 12:32 51°7.943 2°32.399 7.2 248 4.5 102640 95
2005-03-08 12:33 51°7.963 2°32.495 5 252 4.4 102630 95
2005-03-08 12:34 51°7.98 2°32.591 7.6 239 4.4 102630 95
2005-03-08 12:35 51°7.991 2°32.679 8.7 235 4.4 102650 95
2005-03-08 12:36 51°8.002 2°32.759 6.3 248 4.4 102630 95
2005-03-08 12:37 51°8.016 2°32.826 6.4 258 4.4 102630 95
2005-03-08 12:38 51°8.033 2°32.89 5.9 254 4.4 102630 95
2005-03-08 12:39 51°8.05 2°32.962 7.6 255 4.4 102660 95
2005-03-08 12:40 51°8.068 2°33.035 5.3 258 4.4 102640 95
2005-03-08 12:41 51°8.09 2°33.109 6.7 261 4.4 102630 95
2005-03-08 12:42 51°8.113 2°33.18 7.4 263 4.5 102630 95
2005-03-08 12:43 51°8.138 2°33.248 10.3 267 4.4 102630 95
2005-03-08 12:44 51°8.163 2°33.311 7.7 266 4.4 102630 95
2005-03-08 12:45 51°8.185 2°33.377 9 267 4.4 102630 95
2005-03-08 12:46 51°8.206 2°33.444 9.7 269 4.4 102630 95
2005-03-08 12:47 51°8.227 2°33.516 9.2 268 4.4 102630 95
2005-03-08 12:48 51°8.246 2°33.588 8.8 266 4.4 102630 95
2005-03-08 12:49 51°8.26 2°33.663 4.6 259 4.4 102630 95
2005-03-08 12:50 51°8.272 2°33.738 7.4 266 4.4 102640 95
2005-03-08 12:51 51°8.289 2°33.813 4.8 260 4.4 102630 95
2005-03-08 12:52 51°8.306 2°33.883 8.9 265 4.3 102640 95
2005-03-08 12:53 51°8.325 2°33.952 8.4 268 4.3 102640 95
2005-03-08 12:54 51°8.345 2°34.02 8.2 278 4.3 102640 95
2005-03-08 12:55 51°8.369 2°34.083 7.8 285 4.2 102650 95
2005-03-08 12:56 51°8.394 2°34.142 8.2 284 4.3 102640 95
2005-03-08 12:57 51°8.421 2°34.2 7.8 283 4.3 102640 95
2005-03-08 12:58 51°8.447 2°34.257 8 282 4.3 102640 95
2005-03-08 12:59 51°8.473 2°34.318 7.3 290 4.2 102640 95
2005-03-08 13:00 51°8.502 2°34.373 7.1 287 4.2 102650 96
2005-03-08 13:01 51°8.53 2°34.43 6.4 291 4.2 102640 96
2005-03-08 13:02 51°8.558 2°34.485 6 299 4.2 102640 96
2005-03-08 13:03 51°8.591 2°34.54 6.6 299 4.2 102640 96
2005-03-08 13:04 51°8.631 2°34.607 6.9 301 4.2 102640 96
2005-03-08 13:05 51°8.682 2°34.674 6 302 4.1 102640 97
2005-03-08 13:06 51°8.732 2°34.742 7.5 294 4.2 102640 97
2005-03-08 13:07 51°8.785 2°34.825 6.8 296 4.2 102640 97
2005-03-08 13:08 51°8.838 2°34.907 6.7 290 4.1 102660 97
2005-03-08 13:09 51°8.874 2°34.958 5.9 287 4.2 102640 97
2005-03-08 13:10 51°8.899 2°34.998 5.6 289 4.2 102650 97
2005-03-08 13:11 51°8.916 2°35.031 6.7 292 4.2 102640 97
2005-03-08 13:12 51°8.93 2°35.059 6 291 4.2 102660 98
2005-03-08 13:13 51°8.939 2°35.083 6.2 296 4.2 102660 98
2005-03-08 13:14 51°8.955 2°35.111 7 307 4.2 102650 98
2005-03-08 13:15 51°9.025 2°35.111 7.2 348 4.2 102640 98
2005-03-08 13:16 51°9.07 2°35.095 8.9 346 4.2 102650 98
2005-03-08 13:17 51°9.099 2°35.092 9.3 1 4.3 102640 98
2005-03-08 13:18 51°9.119 2°35.093 10.1 12 4.3 102650 98
2005-03-08 13:19 51°9.133 2°35.081 9.5 28 4.4 102640 98
2005-03-08 13:20 51°9.135 2°35.035 10.5 62 4.4 102630 97
2005-03-08 13:21 51°9.118 2°34.999 10.2 93 4.5 102630 97
2005-03-08 13:22 51°9.098 2°34.984 9.7 103 4.5 102620 97
2005-03-08 13:23 51°9.08 2°34.979 9.2 108 4.5 102640 96
2005-03-08 13:24 51°9.07 2°34.981 8 99 4.5 102640 96
2005-03-08 13:25 51°9.056 2°34.976 8.9 93 4.5 102640 96
2005-03-08 13:26 51°9.024 2°34.95 8.3 107 4.5 102630 95
2005-03-08 13:27 51°8.94 2°34.968 7.5 157 4.6 102630 95
2005-03-08 13:28 51°8.9 2°35.061 8.4 239 4.6 102640 95
2005-03-08 13:29 51°8.915 2°35.147 9.7 275 4.6 102630 95
2005-03-08 13:30 51°8.941 2°35.197 9.5 268 4.6 102640 95
2005-03-08 13:31 51°8.961 2°35.269 5.5 259 4.6 102640 95
2005-03-08 13:32 51°8.979 2°35.349 8.5 264 4.6 102640 94
2005-03-08 13:33 51°9.007 2°35.428 8.9 277 4.6 102640 94
2005-03-08 13:34 51°9.033 2°35.501 8.2 265 4.6 102640 94
2005-03-08 13:35 51°9.055 2°35.575 12.2 266 4.6 102670 94
2005-03-08 13:36 51°9.075 2°35.647 8.2 265 4.6 102630 94
2005-03-08 13:37 51°9.091 2°35.719 6.4 252 4.6 102640 94
2005-03-08 13:38 51°9.103 2°35.792 6.8 261 4.6 102640 93
2005-03-08 13:39 51°9.119 2°35.858 8.3 268 4.6 102640 93
2005-03-08 13:40 51°9.14 2°35.921 11.3 269 4.6 102640 93
2005-03-08 13:41 51°9.162 2°35.985 6.7 261 4.6 102640 93
2005-03-08 13:42 51°9.188 2°36.05 11 272 4.6 102640 93
2005-03-08 13:43 51°9.213 2°36.115 10.8 270 4.6 102640 93
2005-03-08 13:44 51°9.239 2°36.182 10.2 268 4.6 102640 93
2005-03-08 13:45 51°9.263 2°36.25 6 261 4.6 102640 93
2005-03-08 13:46 51°9.287 2°36.32 8.6 271 4.6 102650 93
2005-03-08 13:47 51°9.308 2°36.393 8.2 269 4.6 102650 93
2005-03-08 13:48 51°9.328 2°36.463 5.3 259 4.6 102650 93
2005-03-08 13:49 51°9.348 2°36.536 9.3 269 4.6 102650 93
2005-03-08 13:50 51°9.371 2°36.607 9.1 268 4.6 102650 93
2005-03-08 13:51 51°9.394 2°36.677 8.5 266 4.6 102640 93
2005-03-08 13:52 51°9.418 2°36.744 10.5 268 4.6 102650 93
2005-03-08 13:53 51°9.445 2°36.808 8.8 274 4.6 102640 93
2005-03-08 13:54 51°9.476 2°36.869 8.6 278 4.7 102640 93
2005-03-08 13:55 51°9.506 2°36.93 8.5 274 4.6 102640 93
2005-03-08 13:56 51°9.536 2°36.989 10.5 276 4.6 102640 93
2005-03-08 13:57 51°9.563 2°37.052 10.9 271 4.7 102640 93
2005-03-08 13:58 51°9.59 2°37.11 10.6 273 4.7 102640 93
2005-03-08 13:59 51°9.619 2°37.168 9.1 280 4.7 102640 93
2005-03-08 14:00 51°9.65 2°37.22 10.7 289 4.6 102640 93
2005-03-08 14:01 51°9.687 2°37.275 8.4 284 4.7 102650 93
2005-03-08 14:02 51°9.725 2°37.328 8.6 280 4.6 102650 93
2005-03-08 14:03 51°9.757 2°37.384 9.6 280 4.6 102650 93
2005-03-08 14:04 51°9.792 2°37.438 9.1 288 4.6 102650 93
2005-03-08 14:05 51°9.83 2°37.492 8.7 279 4.6 102650 93
2005-03-08 14:06 51°9.866 2°37.559 8.8 267 4.7 102650 93
2005-03-08 14:07 51°9.897 2°37.631 7.6 264 4.7 102670 93
2005-03-08 14:08 51°9.916 2°37.676 8.3 262 4.7 102670 93
2005-03-08 14:09 51°9.929 2°37.707 10.2 270 4.7 102670 93
2005-03-08 14:10 51°9.938 2°37.728 9.9 267 4.6 102660 93
2005-03-08 14:11 51°9.942 2°37.744 9.8 276 4.6 102670 93
2005-03-08 14:12 51°9.944 2°37.758 8.9 284 4.6 102660 93
2005-03-08 14:13 51°9.945 2°37.769 9.5 277 4.6 102650 94
2005-03-08 14:14 51°9.942 2°37.782 8.9 273 4.6 102660 94
2005-03-08 14:15 51°9.938 2°37.794 9.5 264 4.6 102650 94
2005-03-08 14:16 51°9.956 2°37.867 6.9 242 4.6 102660 94
2005-03-08 14:17 51°9.882 2°37.992 5.7 143 4.7 102680 94
2005-03-08 14:18 51°9.756 2°38.089 5.9 112 4.6 102670 94
2005-03-08 14:19 51°9.637 2°38.181 5 167 4.6 102670 94
2005-03-08 14:20 51°9.594 2°38.272 4.8 199 4.7 102670 95
2005-03-08 14:21 51°9.562 2°38.339 5.7 156 4.9 102670 95
2005-03-08 14:22 51°9.52 2°38.474 5.5 247 4.9 102670 94
2005-03-08 14:23 51°9.539 2°38.599 6 254 4.7 102670 93
2005-03-08 14:24 51°9.554 2°38.683 6.7 241 4.7 102660 94
2005-03-08 14:25 51°9.563 2°38.761 6.3 245 4.6 102660 94
2005-03-08 14:26 51°9.565 2°38.839 6.5 247 4.6 102650 94
2005-03-08 14:27 51°9.571 2°38.912 6.2 253 4.5 102650 94
2005-03-08 14:28 51°9.581 2°38.981 8.5 245 4.5 102650 94
2005-03-08 14:29 51°9.592 2°39.053 6.9 251 4.5 102650 95
2005-03-08 14:30 51°9.604 2°39.125 8 250 4.5 102660 95
2005-03-08 14:31 51°9.615 2°39.196 5.9 251 4.4 102650 95
2005-03-08 14:32 51°9.625 2°39.269 5.7 253 4.4 102650 95
2005-03-08 14:33 51°9.635 2°39.342 7.2 248 4.4 102650 95
2005-03-08 14:34 51°9.64 2°39.412 7.3 239 4.4 102660 96
2005-03-08 14:35 51°9.645 2°39.485 6.4 247 4.4 102650 96
2005-03-08 14:36 51°9.65 2°39.554 6.6 244 4.4 102660 96
2005-03-08 14:37 51°9.654 2°39.628 6.4 245 4.4 102650 96
2005-03-08 14:38 51°9.661 2°39.702 4.7 257 4.4 102650 96
2005-03-08 14:39 51°9.672 2°39.773 5.1 256 4.4 102650 96
2005-03-08 14:40 51°9.685 2°39.844 4.9 254 4.4 102650 96
2005-03-08 14:41 51°9.698 2°39.916 4.7 256 4.4 102650 96
2005-03-08 14:42 51°9.709 2°39.986 4.3 257 4.3 102640 96
2005-03-08 14:43 51°9.72 2°40.056 5.7 259 4.3 102650 96
2005-03-08 14:44 51°9.732 2°40.125 4.7 259 4.4 102650 96
2005-03-08 14:45 51°9.744 2°40.194 5.9 258 4.3 102650 96
2005-03-08 14:46 51°9.756 2°40.264 6 245 4.4 102650 96
2005-03-08 14:47 51°9.768 2°40.331 5.9 252 4.4 102650 96
2005-03-08 14:48 51°9.783 2°40.398 5.5 258 4.4 102650 96
2005-03-08 14:49 51°9.797 2°40.462 5.5 256 4.4 102640 96
2005-03-08 14:50 51°9.812 2°40.529 6.6 259 4.4 102640 96
2005-03-08 14:51 51°9.826 2°40.593 5.2 259 4.4 102650 96
2005-03-08 14:52 51°9.842 2°40.657 5.1 257 4.4 102650 95
2005-03-08 14:53 51°9.858 2°40.721 6 261 4.4 102650 95
2005-03-08 14:54 51°9.873 2°40.785 5.7 261 4.4 102650 95
2005-03-08 14:55 51°9.888 2°40.846 5.9 260 4.4 102650 95
2005-03-08 14:56 51°9.906 2°40.914 6.3 263 4.4 102650 95
2005-03-08 14:57 51°9.921 2°40.993 6 260 4.4 102670 95
2005-03-08 14:58 51°9.926 2°41.074 5.3 233 4.4 102660 95
2005-03-08 14:59 51°9.911 2°41.159 5.6 229 4.4 102680 95
2005-03-08 15:00 51°9.882 2°41.236 5 207 4.4 102680 95
2005-03-08 15:01 51°9.852 2°41.29 4.9 202 4.4 102680 95
2005-03-08 15:02 51°9.827 2°41.325 4.1 194 4.4 102680 95
2005-03-08 15:03 51°9.806 2°41.352 4.2 203 4.4 102680 95
2005-03-08 15:04 51°9.791 2°41.385 5.9 241 4.4 102670 95
2005-03-08 15:05 51°9.808 2°41.425 7.9 289 4.4 102660 95
2005-03-08 15:06 51°9.837 2°41.427 7.7 309 4.4 102660 95
2005-03-08 15:07 51°9.859 2°41.41 7.6 317 4.4 102670 95
2005-03-08 15:08 51°9.879 2°41.391 7.5 320 4.4 102660 96
2005-03-08 15:09 51°9.896 2°41.375 7.6 320 4.4 102660 96
2005-03-08 15:10 51°9.913 2°41.354 7.8 326 4.4 102660 96
2005-03-08 15:11 51°9.93 2°41.327 7.9 340 4.4 102670 96
2005-03-08 15:12 51°9.944 2°41.296 7.6 343 4.4 102660 96
2005-03-08 15:13 51°9.956 2°41.259 7.3 354 4.5 102670 96
2005-03-08 15:14 51°9.965 2°41.219 7.6 3 4.5 102670 96
2005-03-08 15:15 51°9.965 2°41.182 7.6 18 4.5 102680 96
2005-03-08 15:16 51°9.958 2°41.154 7.7 28 4.5 102680 95
2005-03-08 15:17 51°9.946 2°41.136 7.4 45 4.4 102670 95
2005-03-08 15:18 51°9.935 2°41.127 7.5 68 4.4 102680 95
2005-03-08 15:19 51°9.925 2°41.119 8.1 87 4.4 102680 95
2005-03-08 15:20 51°9.915 2°41.109 8.4 112 4.4 102680 95
2005-03-08 15:21 51°9.904 2°41.098 7.4 121 4.4 102690 96
2005-03-08 15:22 51°9.891 2°41.084 7.4 111 4.4 102690 96
2005-03-08 15:23 51°9.866 2°41.012 9.2 34 4.4 102660 96
2005-03-08 15:24 51°9.911 2°40.914 9.1 318 4.3 102670 96
2005-03-08 15:25 51°9.973 2°40.996 6.9 292 4.3 102660 96
2005-03-08 15:26 51°10.058 2°41.212 7.7 306 4.4 102640 96
2005-03-08 15:27 51°10.163 2°41.484 9 308 4.4 102630 96
2005-03-08 15:28 51°10.26 2°41.776 7.8 305 4.4 102640 97
2005-03-08 15:29 51°10.356 2°42.07 8.6 304 4.3 102640 97
2005-03-08 15:30 51°10.452 2°42.363 8.3 309 4.3 102640 97
2005-03-08 15:31 51°10.549 2°42.653 9.1 318 4.3 102640 97
2005-03-08 15:32 51°10.644 2°42.948 8 314 4.3 102640 97
2005-03-08 15:33 51°10.739 2°43.242 9.7 304 4.3 102640 97
2005-03-08 15:34 51°10.838 2°43.538 9.3 306 4.3 102630 97
2005-03-08 15:35 51°10.936 2°43.832 8.9 312 4.3 102630 98
2005-03-08 15:36 51°11.035 2°44.124 7.8 312 4.3 102630 97
2005-03-08 15:37 51°11.134 2°44.416 7.7 317 4.3 102640 97
2005-03-08 15:38 51°11.232 2°44.705 8.5 310 4.3 102640 98
2005-03-08 15:39 51°11.329 2°44.999 8.4 313 4.3 102640 97
2005-03-08 15:40 51°11.421 2°45.293 8.3 314 4.2 102640 97
2005-03-08 15:41 51°11.509 2°45.579 8.4 313 4.1 102630 97
2005-03-08 15:42 51°11.604 2°45.885 8.6 313 4.1 102640 97
2005-03-08 15:43 51°11.697 2°46.182 8.6 310 4.2 102630 97
2005-03-08 15:44 51°11.788 2°46.478 8 314 4.2 102630 97
2005-03-08 15:45 51°11.883 2°46.771 9.3 315 4.2 102630 97
2005-03-08 15:46 51°11.978 2°47.061 9 227 4.2 102630 97
2005-03-08 15:47 51°12.078 2°47.349 9.4 314 4.2 102630 97
2005-03-08 15:48 51°12.177 2°47.637 9.5 313 4.3 102630 97
2005-03-08 15:49 51°12.274 2°47.923 9.1 314 4.3 102630 97
2005-03-08 15:50 51°12.372 2°48.215 9.5 311 4.3 102630 97
2005-03-08 15:51 51°12.469 2°48.505 9.8 309 4.3 102660 97
2005-03-08 15:52 51°12.566 2°48.796 10.6 311 4.4 102630 97
2005-03-08 15:53 51°12.662 2°49.083 9.3 305 4.4 102630 97
2005-03-08 15:54 51°12.759 2°49.37 10.7 308 4.4 102620 97
2005-03-08 15:55 51°12.853 2°49.658 10.5 310 4.4 102620 97
2005-03-08 15:56 51°12.947 2°49.945 8.7 313 4.4 102620 97
2005-03-08 15:57 51°13.041 2°50.231 9.7 309 4.4 102620 97
2005-03-08 15:58 51°13.134 2°50.518 9.2 308 4.4 102620 97
2005-03-08 15:59 51°13.227 2°50.806 9.4 313 4.4 102630 96
2005-03-08 16:00 51°13.321 2°51.093 7.9 310 4.4 102630 96
2005-03-08 16:01 51°13.417 2°51.382 9.1 311 4.4 102630 96
2005-03-08 16:02 51°13.511 2°51.671 9.3 312 4.4 102630 96
2005-03-08 16:03 51°13.61 2°51.961 9.4 314 4.4 102630 96
2005-03-08 16:04 51°13.706 2°52.252 10.6 307 4.4 102630 96
2005-03-08 16:05 51°13.798 2°52.54 10.5 315 4.4 102630 96
2005-03-08 16:06 51°13.888 2°52.822 9.2 313 4.4 102620 96
2005-03-08 16:07 51°13.978 2°53.111 9.2 308 4.4 102630 96
2005-03-08 16:08 51°14.061 2°53.401 9.3 310 4.4 102680 96
2005-03-08 16:09 51°14.14 2°53.699 9.4 312 4.4 102640 96
2005-03-08 16:10 51°14.224 2°53.984 10.4 309 4.4 102640 96
2005-03-08 16:11 51°14.311 2°54.27 9.1 310 4.5 102650 96
2005-03-08 16:12 51°14.391 2°54.556 8.8 302 4.5 102660 96
2005-03-08 16:13 51°14.395 2°54.864 6.1 295 4.5 102670 96
2005-03-08 16:14 51°14.329 2°55.133 1.3 275 4.5 102680 96
2005-03-08 16:15 51°14.209 2°55.337 1.1 181 4.5 102690 96
2005-03-08 16:16 51°14.087 2°55.437 2.5 152 4.5 102690 96
2005-03-08 16:17 51°13.974 2°55.522 1.9 156 4.5 102690 96
2005-03-08 16:18 51°13.865 2°55.603 1.7 147 4.5 102690 96
2005-03-08 16:19 51°13.766 2°55.706 4.1 215 4.6 102690 96
2005-03-08 16:20 51°13.693 2°55.841 2.8 232 4.6 102700 96
2005-03-08 16:21 51°13.645 2°55.957 2.3 247 4.6 102700 96
2005-03-08 16:22 51°13.609 2°56.057 5 220 4.7 102700 96
2005-03-08 16:23 51°13.595 2°56.1 4.3 210 4.7 102700 95